SL-3 R/B, 14208

Orbit data source: Space-Track

SL-3 R/B, 14208 is space debris in SSO originally from a launch on Sun, 24 Jul 1983 UTC launched from the Tyuratam Missile And Space Complex (TTMTR). Debris objects in space refer to the collection of defunct objects orbiting the Earth. Examples of debris include non-operational satellites, rocket bodies, and fragments generated from explosions, collisions, or faulty payload assembly.

Loading next visibility...
Identifier
14208, 1983-075B
Orbit
SSO
Country
Flag of CISCIS
Related business
Manufacturer
Progress
Mission
Spacecraft
Bus & Motor
BLOK-E, Unknown motor
Mass
1,440 kg wet, 1,440 kg dry
Launch date (UTC)
1983-07-24 (42 years ago)
Launch vehicle
Unknown
Launch site
Tyuratam Missile And Space Complex (TTMTR)
Object type
Payload
Rocket body
Debris
Shape & HBR
Unknown
Radar Cross Section
Large (>1 m²)

Expand to show TLE details & history
Last TLE update: 11 hours ago

TLE from 11 hours ago
0 SL-3 R/B
1 14208U 83075B   25346.98271070  .00014232  00000-0  40292-3 0  9994
2 14208  97.6109 343.4744 0022795 174.4968 185.6531 15.36141777316834
Epoch: 2025-12-12T23:35Z
TLE epoch observation values (Epoch: 2025-12-12T23:35:06.204Z)
Latitude
0.00005°
Longitude
-92.21797°
Altitude
476.147 km
Speed
7.619 km/s
True Right ascension
22h 53m 53s
True Declination
0° 00' 00"
Sunlit
Object was in daylight at epoch
Visualization orbit readout
Latitude
Unknown
Longitude
Unknown
Altitude
Unknown
Speed
Unknown
Apparent Right ascension
Unknown
Apparent Declination
Unknown
Sunlit
N/A
Visualization observer readout
Local Sidereal Time
09:13:59
Azimuth
Unknown
Elevation
Unknown
Doppler factor
Unknown
Orbital elements
Apogee altitude
470.059 km
Perigee altitude
438.91 km
Semi-major axis
6,832.621 km
Eccentricity
0.00228
Inclination
97.6109°
RAAN
343.4744°
Arg. of periapsis
174.4968°
True anomaly
185.62744°
Mean anomaly
185.6531°
Eccentric anomaly
185.64026°
Mean motion
3.84293 °/min
Orbital period
93.68 mins
BSTAR
0.00040292
Loading maneuver chart data...
Computing Atmospheric mass density...

Documentation

Showing up to 5 results
|